This is the latest recevied weather packets stored in our database for station/object KF6YUA. If no packets are shown the sender has not sent any weather packets the latest 10 day(s).
| Time | Temp. | Humidity | Pressure | Rain* | Wind** | Luminosity | Snow |
|---|---|---|---|---|---|---|---|
| 1777922655 | 16.11° C | 75% | 1017.5 hPa | 0 mm | - | 49 W/m² | - |
| 1777922355 | 16.11° C | 76% | 1017.4 hPa | 0 mm | - | 55 W/m² | - |
| 1777922052 | 16.11° C | 76% | 1017.4 hPa | 0 mm | - | 39 W/m² | - |
| 1777921747 | 16.11° C | 77% | 1017.4 hPa | 0 mm | - | 45 W/m² | - |
| 1777921443 | 16.11° C | 77% | 1017.4 hPa | 0 mm | - | 82 W/m² | - |
| 1777921140 | 16.11° C | 76% | 1017.3 hPa | 0 mm | - | 88 W/m² | - |
| 1777920837 | 16.11° C | 76% | 1017.3 hPa | 0 mm | - | 106 W/m² | - |
| 1777920533 | 16.11° C | 77% | 1017.2 hPa | 0 mm | - | 111 W/m² | - |
| 1777920229 | 16.11° C | 78% | 1017.4 hPa | 0 mm | - | 106 W/m² | - |
| 1777919925 | 16.11° C | 78% | 1017.3 hPa | 0 mm | - | 114 W/m² | - |
| 1777919623 | 16.11° C | 79% | 1017.4 hPa | 0 mm | - | 117 W/m² | - |
| 1777919320 | 15.56° C | 78% | 1017.3 hPa | 0 mm | - | 102 W/m² | - |
| 1777919018 | 15.56° C | 80% | 1017.5 hPa | 0 mm | - | 104 W/m² | - |
| 1777918714 | 15° C | 81% | 1017.5 hPa | 0 mm | - | 103 W/m² | - |
| 1777918412 | 15° C | 82% | 1017.6 hPa | 0 mm | - | 75 W/m² | - |
| 1777918110 | 15° C | 83% | 1017.3 hPa | 0 mm | - | 72 W/m² | - |
| 1777917808 | 15° C | 84% | 1017.4 hPa | 0 mm | - | 82 W/m² | - |
| 1777917506 | 15° C | 83% | 1017.6 hPa | 0 mm | - | 86 W/m² | - |
| 1777917203 | 15° C | 81% | 1017.3 hPa | 0 mm | - | 99 W/m² | - |
| 1777916901 | 15.56° C | 82% | 1017.3 hPa | 0 mm | - | 116 W/m² | - |
| 1777916598 | 15° C | 84% | 1017.5 hPa | 0 mm | - | 102 W/m² | - |
| 1777916295 | 15° C | 85% | 1017.3 hPa | 0 mm | - | 111 W/m² | - |
| 1777915991 | 15° C | 85% | 1017.3 hPa | 0 mm | - | 108 W/m² | - |
| 1777915689 | 15° C | 86% | 1017.4 hPa | 0 mm | - | 91 W/m² | - |
| 1777915385 | 15° C | 86% | 1017.4 hPa | 0 mm | - | 78 W/m² | - |
* Rain latest hour (hover to see other rain measurements)
** Current wind speed in m/s (hover to see current wind gust speed)